Butte, MT

11:35 AM MST on December 06, 2016 (GMT -0700)
Mooney

Weather History for KBTM - August, 2012

Change the Weather History Date:

Friday, August 10, 2012

  Actual Average Record
Temperature  
Mean Temperature 67 °F 63 °F  
Max Temperature 75 °F 81 °F 96 °F (1928)
Min Temperature 58 °F 45 °F 35 °F (2016)
Degree Days  
Heating Degree Days 0 3  
Month to date heating degree days 13 24  
Since 1 June heating degree days 306 411  
Since 1 July heating degree days 33 124  
Cooling Degree Days 2 1  
Month to date cooling degree days 18 12  
Year to date cooling degree days 112 63  
Since 1 June cooling degree days 112 63  
Growing Degree Days 16 (Base 50)    
Moisture  
Dew Point 45 °F    
Average Humidity 47    
Maximum Humidity 65    
Minimum Humidity 29    
Precipitation  
Precipitation T in 0.04 in 0.51 in (2010)
Month to date precipitation T 0.42  
Year to date precipitation 7.15 8.94  
Sea Level Pressure  
Sea Level Pressure 30.02 in    
Wind  
Wind Speed 7 mph (SSE)    
Max Wind Speed 36 mph    
Max Gust Speed 48 mph    
Visibility 10 miles    
Events Rain , Thunderstorm    
T = Trace of Precipitation, MM = Missing Value Source: NWS Daily Summary

Daily Weather History Graph

Daily Weather History Graph

Search for Another Location

Airport or City:

Trip Planner

Search our weather history database for the weather conditions in past years. The results will help you decide how hot, cold, wet, or windy it might be!

Date:

Astronomy

Aug. 10, 2012 Rise Set
Actual Time 6:24 AM MDT 8:45 PM MDT
Civil Twilight 5:50 AM MDT 9:18 PM MDT
Nautical Twilight 5:09 AM MDT 9:59 PM MDT
Astronomical Twilight 4:22 AM MDT 10:46 PM MDT
Moon 12:11 AM MDT (8/10) 3:34 PM MDT (8/10)
Length of Visible Light 15h 27m
Length of Day
14h 21m
Last Quarter, 41% of the Moon is Illuminated
Aug 10
Last Quarter
Aug 17
New
Aug 24
First Quarter
Aug 31
Full
Sep 8
Last Quarter

Hourly Weather History & Observations

Time (MDT) Temp. Dew Point Humidity Pressure Visibility Wind Dir Wind Speed Gust Speed Precip Events Conditions
12:53 AM 60.1 °F 42.1 °F 51% 29.99 in 10.0 mi South 4.6 mph - N/A   Clear
1:53 AM 57.9 °F 42.1 °F 56% 29.96 in 10.0 mi SE 4.6 mph - N/A   Clear
2:35 AM 66.2 °F 42.8 °F 43% 30.17 in 10.0 mi Calm Calm - N/A Thunderstorm Clear
2:53 AM 66.0 °F 43.0 °F 43% 29.98 in 10.0 mi WNW 5.8 mph - N/A Thunderstorm Scattered Clouds
3:20 AM 69.8 °F 42.8 °F 38% 30.12 in 10.0 mi East 4.6 mph - 0.00 in   Scattered Clouds
3:43 AM 64.4 °F 42.8 °F 45% 30.14 in 10.0 mi South 8.1 mph - 0.00 in   Clear
3:53 AM 64.0 °F 43.0 °F 46% 29.94 in 10.0 mi Variable 4.6 mph - 0.00 in   Clear
4:53 AM 61.0 °F 48.0 °F 62% 29.95 in 10.0 mi Calm Calm - N/A   Clear
5:30 AM 64.4 °F 46.4 °F 52% 30.22 in 10.0 mi NNE 4.6 mph 19.6 mph N/A Thunderstorm Thunderstorm
5:53 AM 63.0 °F 48.9 °F 60% 30.02 in 9.0 mi ENE 9.2 mph - 0.00 in Rain , Thunderstorm Light Rain
6:07 AM 66.2 °F 46.4 °F 49% 30.17 in 10.0 mi East 9.2 mph 19.6 mph 0.00 in Rain Light Rain
6:53 AM 64.0 °F 46.9 °F 54% 29.96 in 10.0 mi SSW 8.1 mph - 0.00 in   Scattered Clouds
7:53 AM 64.4 °F 48.2 °F 56% 30.16 in 10.0 mi Calm Calm - N/A   Clear
8:53 AM 68.0 °F 48.9 °F 50% 29.96 in 9.0 mi East 3.5 mph - N/A   Clear
9:53 AM 72.0 °F 44.1 °F 37% 29.94 in 8.0 mi Calm Calm - N/A   Clear
10:53 AM 73.9 °F 48.0 °F 40% 29.94 in 10.0 mi North 4.6 mph - N/A   Clear
11:21 AM 73.4 °F 44.6 °F 36% 30.15 in 9.0 mi SE 15.0 mph - 0.00 in Rain , Thunderstorm Light Rain
11:38 AM 73.4 °F 42.8 °F 33% 30.17 in 10.0 mi SSE 11.5 mph - 0.00 in   Scattered Clouds
11:53 AM 73.0 °F 39.0 °F 29% 30.00 in 10.0 mi South 24.2 mph 31.1 mph 0.00 in   Clear
12:53 PM 71.1 °F 43.0 °F 36% 30.01 in 10.0 mi South 10.4 mph - 0.00 in   Scattered Clouds
1:53 PM 75.0 °F 42.1 °F 31% 29.97 in 10.0 mi SE 11.5 mph - 0.00 in   Partly Cloudy
2:53 PM 73.0 °F 43.0 °F 34% 29.97 in 9.0 mi Calm Calm - N/A   Mostly Cloudy
3:53 PM 71.1 °F 45.0 °F 39% 29.95 in 8.0 mi SE 10.4 mph - 0.00 in Rain Light Rain
4:53 PM 72.0 °F 44.1 °F 37% 29.97 in 10.0 mi SE 8.1 mph - 0.00 in   Mostly Cloudy
5:53 PM 71.1 °F 45.0 °F 39% 29.94 in 10.0 mi West 4.6 mph - 0.00 in   Mostly Cloudy
6:53 PM 69.1 °F 46.9 °F 45% 29.94 in 10.0 mi South 6.9 mph - N/A   Partly Cloudy
7:53 PM 66.9 °F 46.9 °F 49% 29.95 in 10.0 mi SW 4.6 mph - N/A   Clear
8:53 PM 63.0 °F 48.0 °F 58% 29.95 in 10.0 mi Calm Calm - N/A   Clear
9:53 PM 61.0 °F 48.9 °F 64% 29.95 in 10.0 mi ESE 8.1 mph - N/A   Clear
10:53 PM 62.1 °F 50.0 °F 65% 29.96 in 10.0 mi WNW 9.2 mph - 0.00 in   Overcast
11:18 PM 66.2 °F 41.0 °F 40% 30.09 in 10.0 mi South 21.9 mph 31.1 mph 0.00 in Rain Light Rain
11:53 PM 64.9 °F 43.0 °F 45% 29.95 in 10.0 mi SSW 15.0 mph 19.6 mph 0.00 in   Overcast